Theta_e
352 354 356 357 357 356 357 357 357 357 357 357 357 357 357 356 355 355 355 354 353 353 351 350 349 348 347 347 348 347 346 346 346 347 349 351 351 351 351 352 352 352 352 352 353 351 352 351 352 352 351 351 351 351 351 350 349 349 349 349 349 349 349 349 348 348 348 349 348 349 349 347 345 346 348 348 349 348 347 348 347 348 350 348 348
351 354 356 357 356 356 356 356 356 356 357 356 356 356 356 355 355 354 354 353 352 351 350 349 348 348 348 348 347 346 347 347 347 349 352 351 351 351 351 351 351 351 352 352 352 353 352 351 351 351 352 350 352 351 350 350 349 349 349 349 349 349 348 347 347 348 348 349 349 348 347 347 347 347 347 348 348 348 348 348 348 346 349 348 348
352 353 355 356 357 356 355 355 355 355 356 355 355 355 354 354 354 353 352 351 351 350 349 348 348 348 348 347 348 348 347 346 347 350 353 352 350 350 351 352 351 351 352 351 352 353 352 352 351 350 350 350 351 351 350 350 349 349 349 348 348 348 348 348 348 348 347 348 349 347 346 346 346 346 347 347 347 348 348 349 348 348 348 347 348
351 353 354 357 356 355 355 355 355 355 355 354 354 354 353 353 353 352 351 351 350 349 349 348 348 347 348 348 348 347 346 346 347 351 351 352 351 350 351 352 351 351 352 352 352 353 351 351 351 352 351 352 351 350 350 349 349 347 348 348 348 347 347 347 347 347 346 346 348 346 343 343 344 344 344 345 346 347 347 347 347 348 347 348 347
351 353 354 354 356 356 355 354 354 354 354 354 353 353 352 352 352 351 350 350 349 349 348 348 349 349 348 348 347 346 346 347 350 352 351 352 352 351 351 351 352 352 352 353 352 351 351 352 351 351 351 352 351 350 349 349 348 348 347 347 347 347 346 346 346 346 345 343 344 347 341 341 343 342 343 344 345 345 347 347 347 346 347 348 347
352 353 355 354 352 356 354 354 354 353 353 352 352 351 352 351 351 350 350 349 348 349 349 349 349 348 347 347 347 347 346 348 351 352 352 352 351 352 351 352 352 352 352 351 351 351 351 351 352 351 351 350 350 349 349 349 348 348 347 347 347 346 346 346 345 345 344 342 347 339 339 341 341 340 341 344 344 345 345 346 347 346 346 346 347
353 354 354 353 353 354 354 354 353 353 352 352 351 351 350 350 350 350 349 349 349 349 349 349 348 347 347 347 347 347 348 350 351 352 352 353 354 353 351 352 352 352 352 352 352 351 351 351 351 351 350 350 349 348 348 348 347 347 346 345 345 344 344 344 343 342 343 346 341 339 338 337 339 339 341 342 344 343 343 346 345 345 345 345 346
354 354 354 352 352 354 354 353 353 352 352 351 351 351 350 350 350 350 349 350 349 348 347 347 347 348 348 348 349 348 349 351 352 353 354 354 353 353 351 352 351 352 351 351 351 351 351 351 350 349 350 349 348 347 347 347 346 345 345 344 343 343 343 342 340 338 343 339 341 340 340 338 339 339 340 342 342 343 345 344 344 346 345 345 345
353 353 353 353 353 353 353 353 352 352 352 351 350 350 350 350 350 349 349 349 348 347 347 346 348 348 348 347 348 349 350 351 352 353 354 353 352 352 351 351 351 351 351 351 351 351 350 350 349 349 349 348 348 348 347 346 345 345 343 343 342 342 342 341 339 339 340 338 338 339 338 337 336 338 340 341 343 345 344 343 345 345 345 345 345
352 354 353 353 353 354 353 352 352 352 351 350 350 350 349 349 349 349 349 348 347 347 347 348 347 347 348 348 349 349 350 352 353 354 353 352 352 351 351 350 351 351 351 350 350 349 348 348 348 348 348 348 348 347 347 347 345 344 343 342 343 342 341 340 341 346 341 340 339 341 341 343 337 337 339 343 344 345 344 345 345 345 344 345 344
354 354 354 353 352 353 353 352 352 351 351 350 350 350 349 349 349 349 348 348 347 347 348 348 348 348 348 348 349 350 351 352 353 353 352 352 352 351 351 351 351 351 350 349 349 349 347 347 348 349 349 349 348 347 346 347 346 344 342 342 342 342 341 340 346 340 338 338 338 338 338 340 339 339 342 343 343 342 342 344 343 343 343 343 344
354 356 356 354 356 353 352 352 352 351 351 351 350 350 349 349 349 349 348 348 347 347 348 349 348 348 348 348 348 350 351 352 352 352 352 351 351 350 350 350 349 350 349 349 348 347 346 348 349 349 349 349 349 348 348 347 345 344 342 342 341 341 339 341 340 337 335 336 338 340 338 338 338 337 340 341 342 342 341 342 342 342 342 342 343
355 354 356 356 353 353 352 352 352 351 351 350 350 349 349 349 349 349 349 348 348 348 348 348 348 349 349 349 349 350 350 350 350 350 351 350 350 350 350 350 349 349 349 348 347 346 346 348 349 349 350 349 349 348 347 345 344 343 342 342 340 339 339 342 340 340 340 340 337 336 336 338 338 340 341 341 342 341 340 340 340 341 341 341 342
355 354 356 354 353 354 352 352 351 351 351 350 350 350 349 349 349 350 350 349 349 349 350 350 349 349 349 349 349 349 349 349 349 349 350 350 349 349 349 349 349 349 348 348 347 346 348 349 349 349 349 349 348 347 346 344 343 342 342 341 340 339 340 344 341 339 340 339 340 338 338 340 339 342 340 340 339 338 339 339 340 339 339 341 342
355 358 357 355 354 352 353 352 352 351 351 351 350 350 350 350 350 350 350 350 349 350 351 351 350 350 348 348 348 349 348 349 349 349 349 349 349 349 349 349 348 348 348 349 348 347 349 349 349 348 348 348 347 346 345 344 343 342 341 339 339 339 342 339 338 339 339 339 339 338 338 340 342 340 338 339 339 339 339 339 338 338 340 341 340
360 359 357 355 352 353 352 353 352 351 351 351 351 351 350 351 350 350 350 350 350 350 351 350 349 349 349 349 349 348 348 349 349 349 349 349 349 348 348 349 348 348 349 348 347 347 348 349 349 348 347 346 346 345 344 343 342 341 340 340 340 340 341 344 340 341 339 337 337 338 337 339 339 339 340 340 340 339 339 338 340 340 340 340 340
357 357 353 352 352 352 351 351 352 352 351 351 351 351 351 351 350 350 350 350 350 351 350 349 349 348 349 348 347 348 348 348 348 349 348 349 349 348 348 348 348 348 348 348 348 348 348 349 349 348 347 346 345 344 343 342 341 340 340 340 340 340 339 343 340 341 340 339 338 338 338 339 339 339 337 337 337 340 339 338 339 339 339 339 338
357 355 352 351 351 352 351 352 352 351 352 352 351 351 351 351 350 350 351 350 351 350 349 349 349 349 348 348 347 347 348 348 348 348 349 349 348 347 347 346 346 347 348 347 347 347 348 349 349 348 347 346 345 344 343 341 340 340 340 340 339 337 338 343 340 340 340 340 338 339 338 338 337 337 337 336 335 338 339 339 338 339 339 338 337
356 355 351 352 351 354 352 351 353 352 351 351 350 353 352 351 351 351 351 351 350 350 349 349 349 348 347 347 347 348 349 348 348 349 349 348 347 346 346 347 347 347 347 346 346 346 347 348 349 348 346 345 344 343 342 341 340 340 339 339 337 338 338 343 339 340 341 341 340 339 337 339 339 339 338 339 339 338 339 339 339 338 337 339 339
355 350 350 349 352 350 352 351 350 352 352 351 350 350 353 352 351 351 351 351 350 350 350 349 348 348 348 347 348 349 349 349 349 349 349 348 347 346 347 347 347 346 346 346 347 347 347 348 348 348 346 345 344 342 341 341 340 340 340 338 338 338 343 342 341 340 340 339 340 338 337 338 338 338 339 339 338 338 338 338 338 338 337 337 338
352 353 348 349 350 351 351 351 352 353 353 353 352 350 350 352 352 351 351 351 351 350 350 349 348 347 348 348 347 350 350 349 351 350 348 349 347 347 347 347 347 346 345 346 347 347 347 348 348 348 345 344 343 342 341 341 341 339 339 338 338 344 343 342 342 341 340 339 339 336 336 337 336 335 336 336 335 336 336 335 336 336 336 336 337
347 348 350 348 351 352 351 352 350 353 353 351 352 351 351 351 351 351 351 351 351 351 352 351 349 351 346 347 349 347 346 348 349 348 350 350 348 346 346 346 346 346 345 345 346 347 346 347 347 347 345 344 343 343 344 342 340 340 339 339 342 342 345 343 343 340 340 340 339 337 337 337 337 335 338 337 337 337 337 337 336 336 335 335 335
347 345 349 350 351 352 353 352 352 352 353 353 351 351 352 351 351 350 350 350 351 353 351 351 350 351 350 348 350 349 348 348 350 349 348 346 348 346 346 346 346 346 345 345 346 346 346 345 347 346 343 343 344 344 344 342 341 340 339 341 343 343 344 344 343 343 341 340 339 337 336 335 335 336 337 336 336 335 334 334 333 332 332 332 332
347 348 347 351 350 350 351 352 353 352 352 352 351 352 351 351 351 350 351 350 350 350 351 351 352 352 351 352 351 348 349 350 347 348 349 349 348 347 346 345 345 345 345 345 345 346 345 345 346 345 343 343 348 344 343 342 338 340 344 343 341 342 344 343 340 342 342 339 338 337 336 336 336 337 338 336 335 334 333 334 335 334 333 332 331
349 350 349 351 352 352 350 350 352 353 353 353 352 351 351 352 351 349 350 349 350 350 353 353 352 351 349 351 352 350 352 351 350 349 346 347 347 348 347 346 346 347 345 341 341 344 347 348 348 344 345 345 344 345 344 343 344 343 343 342 343 344 343 344 342 343 342 340 338 336 336 336 336 335 335 335 334 334 332 331 331 331 330 333 332
351 349 349 352 349 350 350 351 352 353 352 352 350 352 352 350 350 352 351 351 351 353 352 352 349 348 352 350 350 352 353 351 351 348 346 345 345 344 342 344 344 344 345 342 340 340 344 345 346 345 345 347 345 345 344 343 342 342 342 343 343 344 342 341 342 341 341 341 339 336 337 337 336 335 335 335 334 333 333 332 332 332 332 332 332
346 348 351 352 352 353 352 352 352 353 353 352 351 352 351 351 351 350 350 348 351 351 351 351 352 352 350 349 349 350 351 350 349 349 348 348 344 343 344 344 344 342 344 342 343 343 342 343 344 344 345 344 344 344 343 342 342 341 342 341 342 342 342 341 340 340 341 340 339 336 336 335 334 335 334 334 333 333 332 331 332 333 332 331 329
347 347 349 349 352 353 353 353 353 353 354 354 353 351 352 352 352 350 350 349 351 351 351 352 352 352 345 350 350 350 349 348 349 349 349 349 346 346 345 343 342 341 343 342 340 341 342 344 346 344 343 343 341 341 340 340 341 342 340 341 341 342 343 341 341 341 340 340 339 337 336 335 336 334 333 333 333 334 333 332 333 332 332 331 331
344 347 348 349 352 353 352 352 353 353 354 354 352 351 352 352 352 352 351 348 351 352 353 351 351 352 351 348 346 349 348 348 348 348 349 348 346 345 343 343 343 343 343 340 337 338 341 343 345 344 345 344 342 341 340 340 341 342 341 340 340 341 342 342 341 339 341 341 340 339 336 334 333 333 332 334 335 336 336 335 335 333 330 329 332
346 348 348 348 352 354 353 352 353 353 353 353 351 351 352 352 352 352 351 350 350 351 350 349 350 350 350 350 349 349 350 348 347 347 347 348 346 346 344 344 344 344 343 341 339 338 340 341 344 344 344 343 342 341 340 340 338 341 340 340 340 341 342 340 340 340 341 342 341 339 336 335 333 334 337 336 336 336 335 332 329 330 332 331 332
345 347 347 347 350 351 351 352 354 353 354 352 352 353 353 352 352 351 349 349 351 350 348 347 348 349 349 349 348 348 342 350 348 349 347 349 346 347 345 345 344 343 343 341 341 339 341 341 344 341 343 342 342 341 340 340 339 337 340 339 341 342 341 342 341 341 342 342 341 340 339 336 337 337 337 339 336 334 332 333 333 333 332 332 332
344 344 347 349 348 349 351 351 352 353 352 351 352 352 352 351 350 350 350 348 348 347 347 349 347 348 348 348 347 345 344 347 346 343 344 342 344 344 345 346 344 344 343 342 341 341 341 342 344 344 345 345 343 343 343 340 340 338 339 339 340 341 341 342 341 342 342 342 340 341 339 337 337 337 337 338 335 333 333 333 333 332 332 332 331
345 347 348 348 348 350 350 350 351 353 352 351 351 352 352 349 348 343 348 348 349 348 347 349 349 348 347 348 342 346 345 344 341 343 343 342 345 343 344 345 346 346 344 344 343 343 341 341 343 343 343 344 343 343 341 343 342 341 341 340 342 340 342 341 342 342 341 341 341 342 341 339 338 337 337 335 337 336 333 332 332 332 332 332 329
344 344 345 348 348 348 348 348 349 350 352 352 351 351 351 352 347 348 349 349 349 350 348 349 349 348 348 346 344 346 347 343 341 342 341 347 344 344 344 344 344 345 344 344 342 342 339 339 339 340 340 341 341 343 341 341 341 342 342 343 342 341 340 339 340 340 340 341 341 341 341 340 338 338 335 336 336 335 334 333 331 331 332 331 331
343 343 344 345 346 346 347 345 347 348 349 350 349 348 350 350 350 349 349 349 349 349 348 348 348 348 347 346 347 346 342 341 341 342 341 341 341 346 346 344 344 343 342 342 343 343 342 339 337 337 341 341 341 342 341 342 342 340 342 343 341 342 342 341 342 341 339 341 342 341 342 339 339 340 339 337 336 336 336 333 332 332 331 331 330
343 344 343 344 344 345 345 344 345 346 348 350 350 348 348 348 348 346 347 348 348 347 344 345 345 346 345 344 344 343 341 341 341 341 341 341 340 340 342 339 343 344 344 344 344 341 342 341 340 339 340 339 340 341 342 342 342 341 343 342 341 340 341 341 341 341 341 341 341 341 342 341 341 340 337 338 340 337 335 333 332 331 331 328 328
344 343 341 342 342 343 343 345 344 345 346 350 349 346 348 346 346 344 343 347 347 346 346 347 346 345 344 343 343 340 339 335 340 342 341 340 342 340 339 341 342 344 344 345 342 342 343 342 341 342 342 338 337 339 341 342 342 342 342 342 342 342 341 342 342 341 341 341 341 341 341 340 340 335 340 339 339 337 335 333 332 331 329 329 329
344 343 342 341 342 342 342 344 345 345 347 347 347 346 347 347 346 343 346 346 346 346 347 346 346 345 345 344 342 340 339 339 338 339 340 343 344 342 340 340 341 340 345 345 344 343 343 343 340 340 337 338 336 338 341 342 341 340 340 340 341 341 340 341 342 340 340 339 338 338 339 340 340 340 340 340 339 338 336 336 335 334 334 333 330
343 343 342 342 343 343 342 341 343 345 344 346 342 342 346 346 345 345 344 344 345 346 347 344 344 345 344 345 344 341 338 339 339 340 342 343 342 342 337 341 343 343 342 342 343 342 340 340 340 340 341 340 337 340 341 340 339 339 338 339 340 339 339 339 341 340 339 339 338 338 339 338 339 338 339 338 338 339 339 337 336 336 336 336 335
343 343 342 342 342 343 343 342 343 343 345 345 343 342 339 340 340 342 340 338 342 342 342 340 341 341 342 344 344 342 340 339 340 341 340 343 341 338 338 341 343 339 336 336 340 339 339 340 340 340 340 341 340 340 341 339 338 338 337 338 338 339 337 337 339 339 338 338 337 338 338 339 338 337 337 337 339 340 338 340 338 336 337 336 335
342 343 343 342 342 341 341 340 343 343 341 339 337 337 335 337 337 335 334 337 338 341 340 339 341 341 343 343 343 342 342 342 340 341 342 341 340 337 336 340 339 337 336 334 339 341 343 341 339 341 340 338 337 339 339 339 335 333 335 333 335 337 337 337 336 337 337 337 337 336 337 337 338 337 338 338 338 339 338 337 337 336 335 341 336
340 342 341 341 341 342 341 340 340 341 341 342 339 338 338 337 337 336 336 336 338 337 339 341 341 341 343 341 341 340 342 342 341 341 341 341 340 341 343 341 339 339 337 339 341 341 343 341 338 336 339 337 334 338 336 336 329 328 324 327 327 333 335 334 334 336 338 339 337 336 338 336 337 336 337 337 336 337 337 338 336 337 334 335 337
338 339 339 341 341 341 341 341 341 341 340 339 339 338 341 339 338 337 335 338 341 341 342 343 341 341 341 342 341 340 340 340 341 340 340 340 340 340 340 341 340 338 339 339 340 339 340 339 341 338 335 335 335 339 340 335 332 333 332 325 322 321 327 330 333 335 336 336 337 338 335 336 336 337 337 337 335 336 337 336 337 337 337 340 340
337 338 338 338 339 340 340 340 340 340 341 341 341 340 338 339 338 337 338 339 337 340 342 343 342 341 340 340 339 339 339 339 340 340 339 339 339 338 340 339 339 338 338 336 337 336 338 338 339 339 338 331 331 331 338 337 334 332 323 324 323 322 319 320 325 331 335 334 335 335 335 333 336 335 336 333 334 337 336 335 339 338 336 337 336
336 336 338 338 338 338 339 339 339 340 342 341 339 339 339 338 338 339 340 338 339 340 341 339 340 340 341 341 340 340 340 341 341 340 337 337 339 338 337 337 339 338 338 337 336 337 338 338 337 337 333 333 331 330 332 335 337 338 331 322 321 319 320 323 326 325 331 331 332 333 333 333 334 335 336 336 334 338 339 337 338 338 338 337 337
336 337 338 338 338 338 339 338 338 339 337 338 340 338 336 335 335 334 334 334 333 336 336 337 337 337 337 341 342 341 340 340 340 339 337 338 338 338 337 335 337 337 337 338 337 338 336 337 338 336 333 333 333 333 332 337 339 337 334 331 331 324 325 326 324 319 329 333 336 334 335 336 336 336 335 332 335 333 334 333 335 334 336 337 338
334 335 336 336 337 336 337 336 337 338 338 339 340 338 337 337 337 336 336 335 334 337 341 341 340 340 341 342 341 341 340 339 339 338 338 338 338 338 336 337 337 338 337 338 339 339 336 337 337 334 336 334 335 332 334 334 335 336 336 337 337 334 334 328 324 324 320 328 330 331 331 336 335 333 333 332 333 333 334 335 336 337 338 339 339
333 335 334 335 335 335 337 337 337 338 339 338 337 338 337 336 336 337 337 337 337 338 341 342 342 341 340 339 340 340 340 339 339 337 337 338 338 337 337 337 339 336 337 337 338 338 339 338 338 338 334 336 337 334 334 334 331 331 334 336 334 336 337 335 334 326 323 321 324 332 333 330 334 334 332 332 332 333 334 337 337 335 336 334 335
331 331 332 334 335 336 336 337 338 337 338 338 338 338 337 337 336 336 336 337 339 339 341 342 341 342 339 339 340 340 339 339 338 338 337 338 337 338 337 337 338 336 335 339 337 340 340 337 337 333 331 336 336 335 334 333 334 332 332 333 333 332 331 334 334 332 325 322 319 322 325 331 333 332 333 333 332 334 334 335 334 333 333 333 334
331 332 333 334 335 336 336 336 337 339 339 338 337 337 338 337 336 336 336 336 337 337 339 338 340 342 339 338 339 339 339 337 337 337 337 337 338 338 338 338 337 338 338 336 337 339 340 337 340 340 340 338 338 336 337 334 335 336 334 332 329 332 327 327 330 329 329 328 321 322 328 324 323 328 331 331 334 335 334 334 332 332 332 332 333
331 332 333 333 334 334 334 334 336 337 338 338 338 337 337 338 337 336 336 335 337 337 338 337 337 338 339 339 338 338 338 338 339 337 339 337 337 338 339 339 339 337 337 338 337 338 339 340 340 342 342 341 338 337 336 337 337 332 332 333 332 331 328 326 327 328 328 326 324 323 323 326 329 325 329 330 331 332 332 333 331 330 330 330 330
Wind_Speed
12 15 15 15 13 15 16 15 15 15 17 17 17 17 17 18 18 18 18 18 18 18 17 17 16 15 14 14 13 12 12 11 12 12 9 12 12 11 13 13 14 14 16 16 15 16 16 14 15 16 16 16 17 17 16 15 15 15 15 15 15 15 14 14 15 16 16 18 18 18 18 17 15 14 17 19 18 16 15 15 13 11 12 14 17
15 14 14 15 14 16 17 18 17 17 16 18 19 18 17 18 18 18 18 18 18 17 17 16 15 15 14 13 13 13 12 11 12 10 11 13 12 12 14 13 14 15 17 16 15 16 17 16 16 16 17 16 17 17 17 16 15 15 15 15 15 14 14 13 14 15 15 16 17 17 18 17 17 17 17 18 18 17 17 16 14 11 11 15 17
15 14 14 16 15 16 18 19 20 19 17 17 20 19 18 18 18 18 18 18 18 18 17 16 15 15 14 14 13 13 13 12 11 9 12 11 13 13 14 13 14 16 16 16 16 17 17 16 16 17 16 17 17 17 17 16 15 14 15 15 15 14 13 13 13 13 14 14 16 18 18 18 17 16 17 16 17 18 18 17 16 14 13 17 16
15 13 14 16 15 15 16 16 17 17 18 17 18 20 19 18 18 18 19 18 18 17 17 16 15 15 14 13 13 14 15 13 11 10 12 11 12 13 14 13 14 16 16 17 16 16 16 17 17 17 17 17 16 16 16 15 15 14 15 15 14 14 12 12 11 10 7 7 9 9 8 10 13 15 15 15 16 17 17 17 17 17 17 16 17
15 14 14 15 15 15 17 18 17 18 18 18 17 18 19 18 18 18 18 18 18 18 17 16 15 15 14 14 14 14 14 13 10 12 12 12 12 12 13 13 15 15 16 16 16 17 17 16 17 16 16 16 15 15 15 15 14 13 14 14 14 13 12 11 10 8 7 3 3 5 8 10 10 14 14 14 14 16 15 16 17 16 16 16 15
14 14 13 14 14 15 15 18 18 19 19 20 20 20 19 19 19 19 18 18 18 18 17 17 16 15 15 15 15 15 14 11 9 11 9 9 10 10 13 14 15 15 16 16 16 16 16 16 16 16 16 15 14 14 14 14 13 13 13 13 13 13 12 10 8 7 5 1 6 6 8 9 9 10 13 13 13 15 15 16 16 15 15 15 16
15 12 13 13 12 14 14 16 18 19 20 20 20 20 20 19 19 19 18 18 18 17 17 16 16 15 15 14 15 15 13 11 11 10 10 10 10 12 13 14 15 15 16 16 15 15 15 15 15 15 14 14 14 14 14 14 13 13 13 14 13 12 11 9 6 1 4 8 6 5 7 9 9 9 12 12 12 14 15 15 14 14 14 14 13
13 11 12 13 13 15 14 15 17 18 20 20 20 21 20 19 19 18 18 18 18 17 17 17 17 15 16 16 14 14 13 12 11 11 11 12 12 12 13 15 15 15 15 14 14 14 14 13 13 13 12 12 12 13 13 13 13 13 13 13 13 11 9 7 4 1 8 4 4 6 7 9 10 9 12 12 11 13 14 15 14 14 14 14 13
13 13 13 13 14 18 15 15 15 17 18 19 19 19 19 18 18 18 18 18 18 17 17 17 17 17 16 16 14 13 12 11 12 12 12 13 13 13 14 15 15 15 13 12 12 10 12 12 11 10 10 10 11 12 13 13 13 13 12 12 12 11 7 4 4 7 3 6 7 6 8 9 10 10 11 11 12 14 11 11 14 14 15 15 14
13 12 12 11 14 18 17 15 15 17 18 18 18 19 18 18 18 17 17 18 17 17 17 17 17 17 16 15 14 13 12 11 12 13 15 15 14 15 14 14 14 14 14 13 12 11 11 9 9 9 9 9 10 12 13 12 13 12 12 11 10 9 6 5 7 4 8 8 10 10 11 11 11 10 12 13 13 13 16 18 16 14 12 14 16
13 11 11 12 18 16 15 15 16 18 18 18 18 18 18 18 18 18 18 17 17 17 15 16 16 16 15 14 14 13 11 12 14 15 15 15 14 14 14 13 12 12 12 12 11 10 8 8 8 8 9 9 11 12 12 13 12 12 11 11 10 6 1 1 11 8 9 10 10 9 9 10 9 10 13 13 13 14 15 14 14 13 14 14 15
12 11 11 13 18 14 14 14 16 17 18 18 18 18 18 17 18 18 17 17 17 16 16 15 15 16 16 14 15 12 11 13 14 15 15 15 13 13 14 13 11 11 11 11 9 8 7 7 8 8 9 11 13 14 13 12 12 12 11 9 7 5 3 7 3 7 9 10 8 9 11 10 10 10 12 12 13 13 13 13 12 12 13 14 14
12 12 13 15 15 14 13 14 16 17 17 18 18 18 17 16 18 17 16 16 15 16 17 15 13 13 15 15 15 11 11 12 12 14 14 14 13 13 13 13 12 11 10 9 8 7 8 7 7 8 10 12 13 13 12 12 11 11 10 8 7 3 4 12 7 7 8 10 9 9 10 10 10 12 12 12 12 12 11 11 12 12 12 12 13
12 13 13 14 13 16 13 14 14 16 16 16 16 16 16 16 16 16 15 14 14 14 14 14 14 13 13 14 13 11 10 12 12 13 14 14 13 12 12 13 12 11 9 8 7 7 8 7 7 8 10 12 13 12 12 12 11 11 9 8 6 4 6 6 10 9 9 9 10 11 10 8 10 10 10 11 11 10 10 11 11 11 11 12 12
13 13 13 13 14 14 16 13 14 14 14 14 14 14 14 14 14 13 14 15 15 13 13 13 14 14 14 13 14 12 11 11 11 12 14 14 13 11 12 13 12 11 9 8 7 7 7 7 8 8 10 10 11 12 12 11 11 11 9 7 5 5 8 6 7 8 8 9 9 10 10 9 8 9 10 11 11 11 11 11 10 10 11 11 11
13 13 14 14 14 14 14 15 13 13 14 13 13 14 14 14 14 13 14 15 14 13 12 13 13 13 14 13 13 12 12 11 9 11 13 14 12 11 11 11 13 12 11 9 8 7 7 7 8 9 10 11 11 11 11 11 11 10 8 5 1 3 5 5 6 8 8 8 9 9 9 9 12 10 10 11 11 10 11 11 12 11 11 11 10
12 13 14 14 14 13 12 13 14 14 13 13 12 13 13 14 15 15 15 14 14 14 13 14 14 14 14 15 14 13 13 12 12 11 12 13 13 11 10 10 12 13 12 10 8 7 6 7 8 9 10 11 11 11 11 10 10 9 8 5 4 6 6 2 7 7 7 9 8 8 8 8 9 9 9 10 10 11 10 10 11 11 11 10 10
11 11 12 14 14 13 12 13 14 14 14 13 12 12 13 14 15 14 14 14 14 15 15 15 14 14 14 14 14 14 14 14 13 11 11 12 12 11 10 10 10 11 11 10 8 7 6 7 8 9 11 11 11 11 11 10 10 9 8 6 4 3 4 1 8 7 8 8 9 9 8 10 8 8 10 10 9 10 10 10 10 10 10 10 9
10 11 11 10 11 11 13 13 14 13 14 12 12 13 12 13 14 13 14 14 14 15 14 14 15 15 16 15 14 15 14 14 13 11 10 10 11 11 9 10 10 10 10 11 9 7 6 6 9 10 11 11 11 11 10 11 10 9 9 7 4 3 8 2 7 7 7 7 8 8 8 8 9 10 10 10 10 9 10 10 10 10 10 11 10
9 10 11 9 10 11 11 12 12 13 13 12 11 13 14 12 12 13 14 14 14 14 14 14 16 16 15 14 13 14 13 12 13 11 10 9 11 10 11 10 11 10 9 10 9 7 6 6 9 11 11 11 11 10 11 10 10 10 8 8 6 10 3 6 6 7 7 8 8 8 7 7 11 10 10 9 9 9 9 10 9 9 9 10 11
7 9 11 10 9 11 13 11 12 14 13 12 11 12 13 15 12 12 13 12 12 13 15 16 15 14 14 12 11 11 11 10 11 11 11 9 8 10 10 10 10 10 8 8 9 7 5 7 9 12 12 12 11 11 10 10 10 9 9 8 10 5 5 4 5 6 6 7 8 8 8 10 9 9 10 9 9 9 8 8 8 8 8 8 9
10 9 9 8 11 11 13 12 11 13 12 10 9 9 12 14 14 14 12 13 13 14 14 14 14 12 13 12 10 9 9 9 10 12 9 10 9 10 10 10 10 11 8 7 8 7 6 7 11 13 13 13 13 8 8 9 9 9 9 10 8 5 3 4 4 5 7 7 8 9 9 10 10 8 11 10 8 8 9 9 10 9 9 8 8
10 10 9 11 11 11 11 12 12 13 13 11 9 10 13 11 12 12 11 13 13 14 13 13 12 11 11 11 9 8 9 9 9 9 8 11 11 10 10 10 10 11 10 6 6 8 7 8 11 13 13 13 11 6 7 7 7 9 9 8 2 3 4 4 4 5 7 8 8 10 10 8 8 10 9 8 7 7 7 6 7 7 7 7 6
10 9 10 10 11 10 12 11 12 12 11 9 9 9 11 10 10 11 10 11 12 12 12 12 10 11 11 9 7 8 8 7 10 11 11 10 10 10 10 10 11 11 12 7 6 7 9 9 12 12 12 10 5 6 6 6 7 7 4 3 4 5 4 4 4 5 6 8 8 10 9 8 7 10 11 9 8 7 6 8 9 9 9 7 7
8 8 9 10 10 10 10 10 11 11 11 9 9 9 10 9 9 9 9 9 9 10 9 9 9 10 10 8 7 7 7 7 9 9 8 8 9 9 9 8 7 8 10 7 7 6 7 9 9 10 8 7 5 4 4 5 5 4 4 3 4 3 4 4 4 5 6 7 8 8 7 8 8 8 8 9 8 7 6 6 6 7 7 9 9
7 8 9 9 11 10 11 10 11 11 11 8 8 8 9 8 8 8 8 8 8 7 7 7 8 8 8 7 7 7 7 7 8 8 8 8 9 8 8 7 7 7 6 6 6 8 8 8 9 9 7 5 5 4 4 4 4 4 4 4 4 4 4 5 5 5 6 7 7 7 6 8 7 7 7 8 9 8 8 7 6 7 7 7 7
7 6 8 7 8 8 9 9 9 9 9 7 7 7 8 7 6 7 7 7 7 7 7 7 6 8 3 5 6 7 7 6 7 8 8 7 8 8 7 7 7 6 6 6 6 6 7 7 7 7 6 6 6 5 5 4 4 5 5 5 4 4 4 5 4 5 6 7 8 6 7 6 4 7 8 8 8 7 7 6 6 7 7 6 7
7 7 7 8 7 9 8 8 8 8 8 9 8 7 7 6 6 6 6 5 6 6 6 6 6 6 6 7 5 7 7 7 7 7 7 7 7 7 7 7 7 7 7 6 6 6 6 6 7 7 7 6 6 6 5 5 4 3 5 5 4 4 4 4 4 5 6 6 6 7 6 5 5 6 6 7 6 7 6 8 7 6 6 7 7
6 7 6 7 8 7 8 8 7 7 7 7 7 6 6 6 5 5 5 5 5 4 4 5 6 7 8 8 9 7 7 6 7 7 7 7 7 7 7 7 7 7 7 6 6 6 6 6 6 7 6 6 6 5 5 4 3 4 4 5 4 5 5 4 4 3 5 5 6 8 7 7 5 5 5 6 7 7 7 7 8 8 7 7 8
6 7 6 6 6 7 7 7 6 6 5 5 5 5 5 6 5 5 4 4 4 3 6 5 5 6 6 7 8 7 5 7 7 6 6 6 5 6 7 7 7 6 6 6 5 5 6 6 6 7 7 6 6 5 4 4 4 3 4 5 4 5 4 4 3 4 4 4 6 7 7 6 5 3 5 5 7 8 8 6 4 6 8 7 7
5 6 6 5 5 7 6 6 5 4 5 6 4 4 4 5 5 5 5 5 5 6 6 6 5 5 5 6 8 4 4 3 0 2 4 3 5 6 6 6 7 7 7 6 5 5 5 6 6 6 6 6 6 6 5 5 4 4 4 5 4 4 4 3 3 4 3 4 4 6 8 6 5 5 5 4 6 5 5 6 6 7 6 6 6
5 6 5 4 4 5 5 6 5 4 4 5 4 4 4 4 5 4 5 7 6 5 5 5 4 5 5 5 4 5 6 3 4 2 3 3 7 6 5 6 6 6 7 7 6 6 5 6 6 6 6 5 5 6 5 5 4 4 4 5 4 4 4 4 4 4 3 3 3 5 5 7 6 6 5 5 4 4 5 5 5 6 7 6 6
4 5 4 4 4 4 4 4 6 6 5 4 4 4 4 5 4 3 5 5 4 3 4 4 3 4 5 5 7 8 5 4 5 5 4 8 5 5 5 6 5 5 6 8 7 6 6 5 6 6 6 6 6 5 5 5 4 4 3 4 3 4 4 3 3 3 3 3 2 2 4 5 7 7 6 7 7 6 5 5 5 5 5 5 5
4 3 5 5 3 3 3 3 4 5 5 4 4 4 5 5 5 5 2 2 2 2 3 4 4 5 5 5 6 7 3 6 6 4 5 4 4 4 4 5 5 6 6 7 7 7 7 7 7 7 6 6 6 6 5 5 4 4 4 4 4 4 4 4 3 3 3 3 3 2 3 4 5 5 6 7 7 7 5 4 4 5 6 5 6
2 2 4 4 3 2 1 2 2 4 6 5 4 5 4 3 2 3 4 3 3 3 3 4 4 4 4 5 6 5 5 4 4 2 4 1 2 2 3 3 5 5 5 7 7 7 7 8 7 8 7 6 6 6 5 5 5 5 4 4 4 4 3 3 3 4 3 3 3 3 1 2 2 2 3 6 8 7 6 4 4 6 5 6 5
5 3 2 1 3 3 3 5 6 6 4 6 5 3 3 2 1 3 3 4 4 5 5 4 4 4 4 4 5 4 5 3 3 4 3 3 3 4 3 3 3 4 5 6 7 7 6 7 8 8 8 8 7 6 5 5 4 4 4 3 4 4 4 3 3 3 4 3 3 3 3 2 2 3 2 3 3 7 8 6 5 5 4 2 4
4 3 3 3 3 5 4 4 6 6 5 5 5 4 3 3 2 2 4 4 4 4 4 3 2 3 3 2 0 1 1 3 4 2 3 7 6 5 3 3 2 4 4 5 7 6 7 6 7 6 6 7 8 7 5 5 4 4 4 4 3 3 3 3 3 3 3 3 3 3 2 2 3 2 2 2 4 5 8 7 7 6 4 4 5
4 4 5 4 5 4 3 4 5 5 4 4 4 4 3 3 3 4 4 4 4 4 3 3 3 2 2 2 3 5 3 5 5 5 5 5 4 4 4 4 4 6 5 5 6 7 8 7 7 7 9 7 7 6 6 5 4 5 5 5 4 4 3 3 2 2 3 3 3 2 2 3 3 2 2 2 2 4 6 7 6 5 6 5 4
5 5 6 5 3 5 4 3 4 4 4 3 3 3 3 4 3 4 5 4 5 5 3 2 2 2 3 3 3 5 6 6 6 7 6 5 4 4 5 6 5 4 4 5 6 7 7 8 8 8 7 7 7 7 6 6 6 6 6 6 5 4 3 3 2 2 3 2 3 2 2 3 3 3 3 3 3 4 4 5 6 5 5 9 6
5 6 6 5 4 5 4 4 3 1 2 1 1 1 3 3 3 1 4 6 5 5 4 4 3 4 5 4 4 5 6 7 8 8 8 6 5 5 5 6 6 5 2 6 6 7 8 9 10 9 8 7 7 7 6 7 7 7 7 6 5 4 3 4 3 3 3 3 3 3 4 3 4 4 3 3 3 3 3 4 4 4 5 5 7
6 6 7 7 6 5 4 4 4 3 2 3 3 4 5 4 2 3 6 6 6 5 5 5 5 5 6 7 7 6 6 7 6 6 7 7 6 6 8 7 6 7 7 8 7 6 7 8 8 7 9 9 8 7 8 7 7 7 6 7 4 5 4 4 4 4 3 4 4 4 2 3 2 3 3 2 3 3 3 4 2 7 2 3 5
5 5 6 7 6 6 5 5 3 3 4 4 4 5 5 5 3 5 5 6 7 6 6 5 6 6 8 8 6 6 6 6 6 7 8 7 6 7 6 7 7 6 6 6 5 5 7 8 8 8 8 8 8 8 9 8 5 8 7 6 5 3 3 4 5 5 5 4 4 3 4 3 3 3 3 3 3 3 2 2 3 3 6 6 6
6 6 6 6 6 5 4 4 3 2 3 4 4 4 3 4 5 5 7 7 6 5 5 5 6 6 7 6 6 7 7 7 7 8 7 7 7 6 6 5 7 6 5 5 6 6 5 7 9 8 8 7 6 8 8 10 7 6 4 6 5 5 3 4 5 5 5 4 5 5 5 6 6 5 3 2 3 3 1 1 1 3 2 1 1
6 6 6 5 4 4 4 5 3 3 4 5 4 5 6 6 6 6 6 7 6 5 6 6 6 7 8 7 7 6 7 7 7 7 6 6 7 6 5 7 6 6 6 7 7 8 8 7 7 6 6 8 7 6 6 5 7 9 10 6 5 5 6 8 8 5 5 6 5 6 6 5 6 6 4 3 1 3 2 4 2 1 1 1 1
5 6 5 5 4 6 5 4 1 1 1 2 3 3 4 4 5 6 6 6 7 5 6 7 7 8 8 8 8 7 8 8 7 7 7 7 5 7 8 7 7 7 6 7 7 9 9 9 9 7 6 5 8 8 9 11 8 3 1 5 4 6 7 3 6 5 4 6 6 2 2 5 6 6 3 2 4 1 2 3 1 2 1 1 1
6 6 6 6 5 5 4 4 3 3 3 4 4 4 4 6 6 6 6 6 7 7 8 7 7 7 8 7 8 7 7 8 7 8 7 6 7 7 8 8 8 6 6 7 8 8 10 10 10 8 10 11 7 8 8 6 5 3 5 5 1 2 2 7 8 5 7 5 3 4 5 5 4 4 4 5 5 6 6 7 6 3 2 1 1
7 6 6 6 6 5 5 3 2 2 4 4 5 5 5 6 7 7 7 7 7 6 5 5 5 4 5 5 6 6 7 8 7 7 8 8 8 7 8 9 9 7 6 7 8 9 9 10 10 9 9 9 11 8 9 8 6 9 8 7 5 5 7 5 6 5 5 6 4 4 4 5 5 6 4 6 5 4 2 3 2 2 2 2 2
6 6 6 4 4 3 3 4 3 3 3 3 5 6 7 6 7 8 7 7 6 5 6 5 5 4 4 5 5 6 7 7 7 8 8 8 7 8 10 9 8 9 6 8 8 8 7 6 9 7 4 10 10 8 8 8 9 8 8 7 5 4 2 3 5 3 4 6 7 6 5 8 4 2 6 4 5 5 4 2 2 3 2 1 1
6 6 5 4 3 2 1 1 1 2 3 5 6 6 6 7 7 7 7 7 7 6 5 5 5 5 6 5 5 5 6 7 8 8 8 9 7 9 9 9 9 10 10 8 9 9 10 9 9 9 14 10 9 8 7 8 9 7 9 7 4 6 6 3 3 4 5 5 7 8 7 6 5 6 3 1 4 3 3 3 2 1 1 1 0
6 5 5 4 3 2 2 1 2 3 4 4 6 7 9 8 8 8 9 8 6 6 6 6 6 5 6 5 5 5 5 6 7 8 8 9 9 9 9 10 10 8 8 9 11 10 10 11 10 10 10 9 8 7 8 7 8 7 7 5 8 4 4 7 5 5 3 4 5 8 6 8 7 4 5 4 4 4 4 3 2 1 1 1 1
6 5 5 4 4 2 1 1 1 2 3 4 7 7 7 8 7 8 9 9 9 8 7 7 7 6 5 5 4 4 4 5 5 6 8 9 10 10 9 9 9 8 8 5 7 9 9 9 9 10 10 11 9 9 8 8 4 1 6 7 5 5 5 6 6 5 5 4 4 7 8 7 7 8 5 4 5 4 3 3 3 2 2 1 2
Wind_Direction
146 132 131 121 127 127 123 120 115 113 106 106 108 107 107 110 113 113 113 116 118 120 119 122 122 125 129 131 130 131 134 137 136 140 145 126 123 125 114 105 105 106 112 115 112 114 112 109 113 106 105 103 101 99 95 95 94 93 92 89 89 86 84 89 87 84 81 77 78 78 80 83 86 74 70 68 63 60 56 57 63 60 62 63 64
147 135 132 134 124 126 127 126 121 118 111 109 113 115 112 113 114 115 116 117 120 119 119 122 128 129 131 131 131 133 134 133 137 136 124 128 127 123 112 107 109 112 113 117 120 115 112 113 105 104 105 105 101 98 96 93 91 92 91 89 86 85 83 87 88 88 86 85 82 81 78 76 68 66 68 68 65 63 61 59 54 63 66 65 65
142 138 136 135 125 126 127 127 127 121 115 114 117 118 118 118 119 121 122 121 121 121 124 126 128 130 130 133 137 135 132 134 138 130 122 130 129 119 110 110 115 115 114 117 113 108 109 110 108 108 104 102 100 96 94 94 93 91 93 93 89 87 88 84 85 89 98 105 102 96 88 75 67 68 66 66 66 65 62 61 62 66 64 63 65
141 140 137 131 125 124 124 122 120 117 120 120 119 123 122 122 122 124 125 124 123 124 125 125 126 128 131 135 132 131 133 138 140 130 129 129 121 120 117 115 116 114 115 114 114 114 112 111 110 105 103 98 95 94 95 94 95 95 95 94 93 91 92 89 89 87 98 125 139 126 96 90 80 67 68 67 70 67 66 68 69 68 68 66 65
139 139 136 142 137 127 126 124 124 123 123 124 122 123 123 125 126 126 127 127 125 126 126 128 128 130 134 134 134 134 134 140 142 128 133 138 130 126 118 117 116 116 115 115 117 115 114 111 108 105 100 97 96 97 96 96 95 94 93 93 92 90 88 88 83 82 84 110 227 131 94 90 83 69 68 67 68 69 69 69 69 70 74 73 71
140 137 140 143 141 134 125 126 126 127 128 129 129 129 128 129 128 128 129 128 128 128 129 130 131 135 137 137 136 137 138 139 138 139 138 115 113 116 115 118 118 118 118 118 113 112 109 109 108 105 102 100 97 98 98 97 95 94 93 91 91 90 87 86 81 84 97 130 237 89 91 87 84 79 69 70 70 71 69 69 67 67 72 77 75
136 137 141 140 137 135 128 125 128 129 129 130 130 131 130 130 130 131 131 130 129 129 130 131 135 138 136 138 138 140 140 135 126 121 114 109 101 101 119 120 119 118 117 115 113 111 108 109 108 105 105 104 103 101 101 101 100 97 96 94 91 87 84 77 74 107 218 223 75 90 93 91 90 83 75 70 77 78 73 66 69 68 70 72 72
137 140 139 139 141 134 131 129 130 130 131 131 132 132 131 132 132 132 131 131 130 131 134 135 138 140 139 142 145 143 140 130 125 122 112 104 104 113 120 119 116 113 116 114 112 109 109 107 109 109 106 107 110 109 106 105 103 102 100 99 93 87 84 82 91 333 284 72 78 73 84 87 87 84 72 72 77 83 77 72 72 70 64 62 75
140 140 140 135 135 136 135 134 131 131 130 130 131 131 132 132 133 133 134 133 132 133 135 139 142 142 143 148 147 144 138 129 129 122 114 115 114 111 114 116 114 114 112 111 113 111 102 108 110 109 114 117 115 111 110 108 107 105 104 100 96 91 86 89 118 209 129 88 89 92 93 95 92 90 84 82 70 54 81 102 100 79 65 64 64
139 140 136 137 141 136 138 136 134 133 132 132 133 134 134 135 135 135 135 134 134 138 142 144 144 143 148 150 150 146 137 130 118 108 110 118 117 113 113 113 114 114 111 105 103 101 103 109 110 112 114 119 122 120 115 111 109 108 105 102 100 98 109 187 200 79 78 78 71 64 51 57 79 78 85 84 72 69 67 59 55 56 63 66 64
135 141 139 133 136 137 136 137 137 135 134 136 137 137 137 138 139 138 137 137 140 143 141 142 144 145 149 153 151 143 131 113 108 109 107 111 112 113 114 113 109 112 111 111 109 105 106 104 105 109 113 115 121 125 119 115 112 111 109 104 102 105 299 280 264 84 90 94 89 92 87 90 85 89 85 83 79 75 74 70 71 71 68 66 63
139 139 133 125 130 137 136 138 137 137 138 140 140 139 139 140 140 140 141 140 143 143 144 145 147 147 149 154 147 131 119 108 108 109 112 113 113 113 112 108 110 114 111 111 108 110 110 109 110 117 112 111 121 123 117 113 113 111 108 103 96 91 251 275 110 87 79 80 82 78 82 81 88 87 89 83 81 76 74 70 72 73 70 67 66
142 138 130 129 143 135 138 137 140 141 143 143 142 141 141 142 143 142 143 143 146 148 148 145 147 145 148 150 146 129 118 113 114 118 117 117 122 119 114 117 115 110 112 112 117 120 116 112 120 120 113 111 117 120 118 116 114 113 110 103 102 87 344 289 95 87 82 81 86 91 89 83 86 85 89 92 84 79 76 76 71 72 70 68 68
141 136 133 136 140 140 136 139 142 144 145 145 143 144 144 144 145 146 145 146 149 150 145 146 147 147 150 150 146 138 133 125 127 125 124 124 125 127 127 126 124 123 119 125 128 127 120 121 126 120 116 113 115 116 117 120 116 114 110 111 117 155 213 96 90 92 93 88 76 77 81 86 86 89 89 87 85 85 86 78 74 74 74 68 64
136 135 136 136 138 148 141 142 144 144 145 144 145 147 144 144 145 147 145 146 151 148 147 146 148 149 147 151 146 144 140 136 134 133 130 128 130 136 137 133 130 130 131 132 137 132 125 124 125 120 114 113 113 116 120 120 120 116 114 126 156 195 250 108 99 97 99 99 96 93 92 91 84 98 92 86 90 91 90 86 80 76 72 68 65
134 136 136 136 144 144 150 145 142 142 144 145 147 146 146 145 147 146 148 150 151 151 147 144 142 143 147 147 144 145 144 138 139 141 137 131 134 144 144 140 137 138 140 140 142 135 125 121 125 122 117 114 116 118 119 119 117 116 115 100 40 320 324 102 102 95 92 95 97 86 82 83 73 79 92 96 97 98 89 86 81 78 78 72 69
137 139 139 140 143 151 149 154 145 142 143 147 146 145 146 148 149 151 153 155 153 151 148 145 148 153 150 148 150 153 147 146 148 148 146 136 138 140 149 147 146 143 143 141 141 139 131 126 127 125 118 115 115 115 117 115 114 110 102 89 33 354 328 320 95 84 75 74 79 89 95 97 95 100 98 102 96 88 94 93 87 85 80 78 75
136 142 143 144 150 153 152 151 149 154 151 147 146 149 151 153 153 156 156 155 155 153 154 154 157 155 154 152 154 154 151 150 147 144 147 137 134 141 141 145 152 146 144 146 145 142 138 126 128 125 117 116 116 117 116 117 113 107 104 91 67 333 319 48 97 101 97 97 88 80 84 91 103 101 103 100 98 92 89 87 84 82 80 80 79
140 142 135 145 146 156 156 153 159 158 156 159 162 156 157 157 156 156 155 155 158 157 156 159 159 157 157 156 156 156 154 149 147 147 141 132 132 132 144 152 152 151 147 145 142 139 133 125 128 123 120 118 119 119 121 119 117 117 112 111 130 228 257 167 98 103 104 94 90 93 95 113 111 101 91 90 91 95 89 87 87 83 80 75 78
149 148 143 166 158 163 164 157 161 160 161 163 161 164 162 160 159 157 157 159 161 160 159 161 162 160 158 155 156 157 157 152 151 150 143 137 142 150 148 151 148 145 148 142 137 134 130 124 125 126 124 121 119 119 123 124 126 121 126 134 178 220 210 91 99 86 86 85 93 98 103 107 105 103 102 100 94 89 86 84 84 84 86 82 76
151 159 152 166 172 168 162 162 161 162 162 161 159 163 163 163 161 162 160 163 162 160 160 162 163 162 160 158 167 168 158 151 164 153 147 154 128 127 145 142 137 138 144 141 133 129 122 117 133 134 127 123 122 122 123 128 126 132 132 171 197 220 82 100 103 109 107 112 104 99 109 107 99 98 98 95 93 84 83 79 76 80 80 76 73
159 157 152 165 173 172 165 166 163 164 164 161 160 165 163 174 169 168 171 164 165 163 166 169 171 165 166 160 168 163 165 162 162 145 168 139 142 135 139 139 136 134 138 142 128 114 120 135 146 139 130 131 145 145 137 126 131 136 168 187 218 91 115 103 92 93 93 93 98 116 126 110 105 107 101 96 97 98 97 91 82 77 72 68 68
162 162 165 171 177 169 169 171 169 167 165 163 163 164 164 175 169 170 168 176 168 173 174 171 175 166 169 172 177 166 170 166 165 163 165 149 133 139 134 139 137 133 134 134 122 108 112 146 149 142 142 158 183 148 149 149 143 159 181 211 115 115 100 98 105 90 88 91 96 99 97 106 114 109 100 100 99 98 88 88 75 66 70 67 70
165 165 166 170 175 175 176 175 171 170 169 164 166 167 168 176 171 173 173 178 176 182 176 178 178 170 170 175 175 168 170 166 152 154 150 152 136 138 136 133 133 133 133 143 130 107 114 140 149 144 159 184 170 164 150 141 148 172 184 144 118 117 139 133 98 93 98 100 97 106 121 126 111 113 116 111 97 89 82 68 81 78 70 72 84
167 162 166 172 174 175 178 180 177 175 174 170 170 172 174 175 176 179 179 180 180 184 182 183 179 175 181 181 170 170 177 167 165 165 178 166 159 159 158 163 159 145 160 149 174 158 184 156 152 172 183 192 166 158 146 140 153 159 134 117 122 132 112 99 99 107 102 97 101 114 109 107 113 109 103 96 100 101 96 96 86 82 76 75 78
165 171 167 171 175 176 189 179 180 180 179 176 173 169 170 181 181 181 187 183 188 178 198 191 167 208 185 175 173 179 184 174 171 175 174 174 170 170 173 166 157 152 164 158 173 174 186 171 169 184 186 176 157 149 143 146 147 145 133 127 127 139 117 96 99 108 105 101 114 119 116 112 114 116 106 94 97 99 98 90 86 83 93 87 79
173 177 164 167 175 185 186 178 179 178 181 175 180 173 185 189 188 184 189 183 194 187 199 189 195 184 174 183 190 186 188 180 175 178 175 180 177 174 170 169 164 164 172 164 176 183 197 178 182 187 180 170 163 150 153 157 151 139 138 139 129 116 108 110 115 97 100 106 104 116 107 96 89 96 102 110 97 101 95 95 98 108 99 110 90
175 177 176 162 190 185 183 180 181 180 184 182 182 180 186 192 185 176 206 177 200 195 197 198 193 179 195 210 212 198 191 187 182 182 179 186 185 180 172 173 177 170 172 172 172 186 201 178 190 186 181 173 161 162 152 145 156 143 128 124 132 114 101 105 108 117 109 108 119 119 116 112 104 123 116 108 111 106 100 106 113 97 87 72 85
174 182 177 177 185 188 184 184 178 183 179 181 186 189 184 192 182 185 196 183 202 200 213 198 198 194 200 197 207 205 194 194 186 185 186 190 188 183 178 180 182 177 166 169 171 184 199 179 185 184 179 171 165 163 162 149 159 155 138 132 127 108 106 116 122 115 103 119 121 115 112 100 98 93 110 94 100 106 109 101 99 100 94 92 87
183 181 185 188 184 184 189 181 176 183 172 183 191 195 180 187 191 192 192 186 214 201 213 216 218 204 199 207 204 203 203 196 189 186 186 186 190 190 189 178 182 172 176 160 174 186 194 180 185 181 180 175 174 157 161 165 174 157 152 122 126 115 125 121 132 110 103 111 115 119 117 113 112 89 37 102 105 112 111 106 116 100 103 107 104
188 176 185 194 193 187 188 183 174 165 176 189 190 188 198 204 201 198 193 201 201 195 209 213 211 222 217 212 215 191 234 207 237 215 194 182 197 190 188 177 184 176 179 161 173 190 191 179 184 183 180 186 171 158 184 169 174 173 145 134 130 134 124 111 109 111 127 123 130 127 119 113 87 58 51 36 112 117 105 92 91 97 107 100 108
195 188 189 186 189 198 192 186 174 165 190 193 189 200 197 206 202 216 199 210 195 192 205 220 226 232 232 223 276 224 192 156 203 223 223 185 224 195 187 188 186 180 179 171 172 186 189 176 185 189 181 188 171 173 177 177 181 166 169 135 140 136 123 132 135 127 118 122 121 140 149 128 98 61 82 84 103 120 115 123 111 107 109 111 104
183 189 177 192 186 196 181 189 171 168 178 175 184 206 197 193 207 237 232 213 191 182 212 220 229 239 246 240 223 230 161 162 212 229 219 217 205 196 200 197 185 185 182 178 177 180 185 173 188 189 187 188 183 178 182 178 181 168 159 138 144 120 123 140 130 136 134 141 130 146 146 145 134 127 99 101 73 59 91 108 110 122 102 108 104
177 183 199 186 196 178 191 191 185 173 174 148 173 202 197 203 209 184 188 224 207 226 226 231 231 245 241 243 245 236 156 176 202 203 232 230 202 202 203 201 191 181 181 177 186 186 187 187 187 191 193 195 188 179 187 180 173 170 152 148 141 133 152 150 151 135 150 161 140 153 146 148 162 142 144 118 113 101 88 84 59 87 111 119 112
196 167 193 206 175 161 170 211 199 213 190 173 163 208 209 184 212 194 185 198 220 228 227 235 242 250 257 259 255 249 158 183 176 220 206 275 284 220 220 210 185 181 188 190 193 188 188 190 192 197 191 205 197 183 187 180 176 174 149 163 148 156 168 157 155 151 161 142 183 145 136 127 124 137 136 145 126 105 85 96 106 112 120 129 138
198 156 156 165 183 181 189 224 219 216 193 184 160 162 204 94 120 212 198 213 221 219 224 226 238 250 256 268 282 338 3 113 188 224 197 211 210 200 149 240 232 193 202 185 199 189 187 195 194 198 190 199 196 185 184 172 186 155 163 158 155 172 175 159 165 162 159 169 165 143 173 122 142 99 144 125 147 125 114 110 106 128 133 177 109
186 150 148 164 190 164 194 210 207 219 206 192 203 185 197 155 146 185 229 224 231 235 234 244 250 252 258 262 351 37 202 141 221 177 185 214 213 196 197 182 215 220 214 191 195 185 182 194 193 190 208 202 200 186 178 167 166 161 152 161 163 171 185 161 165 169 155 197 138 149 140 132 97 120 171 146 133 146 128 121 116 108 100 78 68
137 157 151 167 181 165 183 213 219 220 200 150 148 158 176 192 180 221 233 242 240 247 258 250 241 250 244 226 185 191 190 157 203 203 224 218 216 206 204 188 184 215 208 203 200 189 184 183 189 186 207 205 206 184 177 157 159 163 162 167 165 179 177 160 160 155 202 169 163 139 119 122 183 155 101 93 112 125 142 129 118 111 93 73 94
152 150 144 158 167 150 168 185 223 234 224 224 234 232 231 234 229 241 251 245 234 233 242 256 266 276 266 241 201 209 200 204 211 218 217 216 215 219 223 199 191 197 218 219 206 203 189 179 186 184 192 204 208 190 178 160 164 165 167 168 165 184 179 144 181 195 212 170 133 152 171 167 188 162 135 155 144 133 137 147 159 155 121 92 73
135 138 146 145 147 146 163 159 203 194 87 145 172 207 255 226 230 266 252 236 235 231 226 238 228 225 220 225 216 221 206 207 216 217 221 206 208 218 227 219 186 171 196 246 214 210 190 176 183 183 182 187 201 192 178 172 167 171 172 163 167 168 156 168 202 194 200 183 176 190 198 161 196 158 159 167 148 131 149 147 166 128 112 111 119
125 135 142 147 149 144 149 172 166 185 172 136 158 187 220 210 199 200 234 234 227 221 225 230 229 222 225 221 218 216 221 221 224 226 233 221 199 225 214 202 182 177 179 219 211 216 190 175 168 171 175 186 181 189 178 174 169 172 163 160 142 175 167 196 191 202 203 194 186 194 209 208 209 156 180 163 194 149 165 171 157 114 137 164 156
124 131 138 138 144 146 151 121 130 206 229 217 200 196 206 215 197 214 217 232 227 222 220 212 220 226 224 224 209 217 226 228 227 230 230 226 213 208 203 196 198 194 190 191 177 187 187 177 169 179 193 188 186 176 184 138 183 187 180 172 171 167 169 196 200 207 214 203 201 199 190 231 219 214 151 175 182 188 162 197 164 111 148 175 172
121 116 110 139 150 156 154 153 175 199 175 163 178 230 205 212 229 237 232 234 230 234 236 223 220 228 228 223 221 224 228 230 223 227 236 222 216 211 203 196 209 188 165 166 170 173 178 167 166 170 183 194 189 185 170 194 194 162 191 156 184 173 147 214 208 216 204 212 208 214 211 209 203 205 193 198 174 190 203 146 216 162 121 166 245
122 124 122 124 128 127 143 145 139 220 189 194 210 178 185 200 231 240 236 239 242 220 220 219 225 225 236 226 221 225 225 225 226 225 226 226 211 208 212 197 206 195 164 167 179 181 184 180 169 161 171 185 184 206 195 225 219 196 195 205 161 176 188 207 202 187 207 208 216 220 207 211 211 204 183 194 178 177 165 267 85 65 85 360 10
122 126 127 118 126 135 142 158 180 245 206 172 211 211 192 197 215 222 231 237 246 240 219 216 219 232 239 232 222 214 225 228 227 224 218 217 208 217 217 202 199 187 179 175 180 191 186 186 183 168 170 193 197 188 196 207 233 249 320 184 159 201 213 165 172 182 190 207 203 175 264 213 194 201 169 177 179 177 131 85 74 212 184 192 164
108 94 95 107 108 111 125 131 158 191 193 201 195 178 191 210 207 210 210 214 225 218 221 219 215 223 230 234 234 222 226 228 220 220 212 206 209 212 211 199 202 187 186 179 191 193 191 187 185 183 181 203 222 193 197 203 222 191 190 228 58 307 274 143 186 178 183 188 171 198 180 206 164 149 183 189 202 167 167 155 182 173 137 175 201
86 96 102 106 105 106 104 127 157 212 196 207 203 199 205 217 218 228 229 226 228 219 223 228 237 223 222 232 235 228 229 218 216 212 216 214 209 205 207 204 198 184 188 183 192 193 193 192 179 197 194 198 208 200 194 187 195 212 216 215 202 190 210 181 198 148 179 143 190 189 197 220 160 179 200 220 169 142 119 134 140 142 158 176 168
83 86 88 88 89 107 142 166 192 223 253 241 215 216 220 216 227 235 237 238 234 236 221 222 222 233 231 235 241 231 227 219 212 207 211 218 209 209 212 209 198 187 192 196 193 194 194 185 197 155 204 227 193 199 192 189 193 196 212 213 218 222 261 230 314 261 187 183 176 173 178 182 159 170 218 178 159 135 146 165 142 164 165 146 96
87 87 86 97 100 109 141 136 201 201 208 230 231 219 226 224 218 227 234 244 249 244 241 231 232 223 227 231 238 236 226 220 215 211 213 219 213 215 212 207 207 191 208 196 197 189 191 191 196 166 210 199 190 198 193 191 201 207 189 212 225 203 201 200 222 244 243 171 169 173 178 149 159 161 159 224 104 120 137 131 99 69 100 94 34
89 101 108 117 131 152 146 201 208 227 212 206 231 235 228 227 229 227 238 245 247 252 250 246 244 242 244 237 242 240 232 221 216 212 209 216 219 220 216 214 213 204 197 191 197 191 197 197 196 194 196 193 189 195 198 201 190 214 179 191 204 223 190 206 189 205 231 243 167 175 154 165 171 164 150 147 131 146 146 123 147 183 116 132 167
82 81 82 81 93 100 105 217 256 288 280 245 222 230 234 236 242 241 240 243 246 244 244 244 237 236 244 241 236 239 238 239 234 230 222 218 218 221 222 220 214 198 199 193 180 195 195 198 198 201 199 200 199 191 197 207 152 253 211 199 203 203 217 213 184 193 204 190 205 144 161 169 170 154 152 143 152 153 139 141 159 139 128 117 96